This demonstration page uses our WeatherBlox Daily Observations layout. Learn more.

Left ArrowRight Arrow

39.51506, -84.39828

Hourly Observations for August 12, 2021

Temp ( °F °C ) Dew Point ( °F °C ) Humidity (%) Winds ( mph kmh ) Pressure ( in mb ) Visibility ( mi km ) Precip ( " mm )
12:15 am 00:15 Clear 81 27.2 75 24 83 83 WSW 7 11 29.97 1015 10 16 N/A
12:35 am 00:35 Clear 80 26.6 75 24 86 86 WSW 5 7 29.98 1015 10 16 N/A
12:55 am 00:55 Clear 79 26.2 75 24 88 88 WSW 5 7 29.98 1015 10 16 N/A
1:15 am 01:15 Clear 78 25.8 75 24.1 90 90 WSW 8 13 29.98 1015 10 16 N/A
1:35 am 01:35 Clear 78 25.8 75 24.1 90 90 WSW 8 13 29.98 1015 10 16 N/A
1:55 am 01:55 Clear 79 25.9 75 24.1 90 90 WSW 8 13 29.98 1015 10 16 N/A
2:15 am 02:15 Clear 79 25.9 75 24.1 90 90 SW 8 13 29.98 1015 10 16 N/A
2:35 am 02:35 Clear 78 25.3 75 24 93 93 WSW 8 13 29.98 1015 10 16 N/A
2:55 am 02:55 Clear 78 25.3 75 23.9 92 92 WSW 8 13 29.97 1015 10 16 N/A
3:15 am 03:15 Clear 77 25 75 23.9 94 94 SW 9 15 29.97 1015 10 16 N/A
3:35 am 03:35 Clear 77 24.8 75 23.8 94 94 WSW 8 13 29.97 1015 10 16 N/A
3:55 am 03:55 Clear 77 25.1 75 23.9 93 93 SW 7 11 29.96 1015 10 16 N/A
4:15 am 04:15 Clear 76 24.4 75 23.8 96 96 WSW 6 9 29.96 1015 10 16 N/A
4:35 am 04:35 Clear 74 23.6 74 23.4 99 99 WSW 5 7 29.98 1015 10 16 N/A
4:55 am 04:55 Clear 75 24.1 75 23.7 98 98 SSW 6 9 29.97 1015 10 16 N/A
5:15 am 05:15 Clear 75 23.9 74 23.6 98 98 SSW 8 13 29.97 1015 10 16 N/A
5:35 am 05:35 Clear 73 23 73 23 100 100 WSW 5 7 29.97 1015 10 16 N/A
5:55 am 05:55 Clear 73 23 N/A N/A WSW 5 7 29.97 1015 10 16 N/A
6:15 am 06:15 Clear 73 23 N/A N/A W 5 7 29.98 1015 10 16 N/A
6:35 am 06:35 Clear 73 23 N/A N/A WSW 5 7 29.99 1015 10 16 N/A
6:55 am 06:55 Sunny 73 23 N/A N/A SW 6 9 29.99 1015 10 16 N/A
7:15 am 07:15 Sunny 76 24.4 75 24.1 98 98 SW 8 13 29.99 1016 10 16 N/A
7:35 am 07:35 Sunny 77 25 76 24.2 95 95 SW 9 15 30.01 1016 10 16 N/A
7:55 am 07:55 Partly Cloudy 78 25.4 76 24.3 94 94 WSW 9 15 30.02 1017 10 16 N/A
8:15 am 08:15 Sunny 79 26.1 76 24.4 90 90 SW 13 20 30.03 1017 10 16 N/A
8:35 am 08:35 Sunny 80 26.6 76 24.6 89 89 SW 12 19 30.03 1017 10 16 N/A
8:55 am 08:55 Sunny 81 27.1 76 24.5 86 86 SW 14 22 30.04 1017 10 16 N/A
9:15 am 09:15 Sunny 82 27.5 76 24.6 84 84 WSW 12 19 30.05 1018 10 16 N/A
9:35 am 09:35 Partly Cloudy 83 28.1 76 24.5 81 81 WSW 12 19 30.06 1018 10 16 N/A
9:55 am 09:55 Cloudy 82 27.8 76 24.5 82 82 WSW 10 17 30.05 1017 10 16 N/A
10:15 am 10:15 Partly Cloudy 84 28.8 77 24.8 79 79 SW 10 17 30.03 1017 10 16 N/A
10:35 am 10:35 Sunny 85 29.6 77 24.8 75 75 WSW 14 22 30.04 1017 10 16 N/A
11:15 am 11:15 Partly Cloudy 87 30.4 76 24.5 71 71 WSW 9 15 30.03 1017 10 16 N/A
11:35 am 11:35 Partly Cloudy 87 30.6 76 24.5 70 70 SW 8 13 30.03 1017 10 16 N/A
11:55 am 11:55 Sunny 88 31.2 76 24.2 66 66 SW 8 13 30.03 1017 10 16 N/A
12:15 pm 12:15 Partly Cloudy 90 32 76 24.6 65 65 SW 10 17 30.03 1017 10 16 N/A
12:35 pm 12:35 Partly Cloudy 90 32.1 76 24.4 64 64 SW 10 17 30.02 1016 10 16 N/A
12:55 pm 12:55 Partly Cloudy 91 32.5 76 24.3 62 62 WSW 14 22 30.01 1016 10 16 N/A
1:15 pm 13:15 Sunny 92 33.1 76 24.2 60 60 WSW 14 22 30.01 1016 10 16 N/A
1:35 pm 13:35 Partly Cloudy 91 32.8 76 24.2 61 61 SW 14 22 30.00 1016 10 16 N/A
1:55 pm 13:55 Sunny 91 33 76 24.4 61 61 SW 15 24 29.99 1015 10 16 N/A
2:15 pm 14:15 Sunny 92 33.1 76 24.2 60 60 SW 13 20 29.99 1015 10 16 N/A
2:35 pm 14:35 Sunny 93 33.7 76 24.7 59 59 SW 17 28 29.96 1015 10 16 N/A
2:55 pm 14:55 Partly Cloudy 93 34 76 24.3 57 57 SW 16 26 29.96 1015 10 16 N/A
3:15 pm 15:15 Sunny 94 34.5 76 24.3 55 55 WSW 20 31 29.96 1015 10 16 N/A
3:35 pm 15:35 Sunny 94 34.7 74 23.5 52 52 WSW 20 31 29.95 1014 10 16 N/A
3:55 pm 15:55 Sunny 94 34.7 75 23.9 53 53 SW 20 31 29.95 1014 10 16 N/A
4:15 pm 16:15 Sunny 95 34.9 75 23.9 53 53 SW 17 28 29.95 1014 10 16 N/A
4:35 pm 16:35 Sunny 94 34.5 75 23.7 53 53 SW 16 26 29.95 1014 10 16 N/A
4:55 pm 16:55 Sunny 94 34.5 75 23.7 53 53 WSW 16 26 29.95 1014 10 16 N/A
5:15 pm 17:15 Partly Cloudy 94 34.2 74 23.3 53 53 SW 18 30 29.95 1014 10 16 N/A
5:35 pm 17:35 Partly Cloudy 94 34.5 74 23.4 52 52 WSW 12 19 29.95 1014 10 16 N/A
5:55 pm 17:55 Mostly Cloudy 93 33.8 73 22.5 52 52 WSW 14 22 29.94 1014 10 16 N/A
6:15 pm 18:15 Partly Cloudy 93 34 72 22.4 51 51 W 13 20 29.94 1014 10 16 N/A
6:35 pm 18:35 Partly Cloudy 91 32.9 73 22.6 55 55 W 10 17 29.95 1014 10 16 N/A
6:55 pm 18:55 Mostly Cloudy 92 33.3 73 22.5 53 53 WSW 14 22 29.94 1014 10 16 N/A
7:15 pm 19:15 Partly Cloudy 91 32.8 73 22.7 55 55 WSW 12 19 29.95 1014 10 16 N/A
7:35 pm 19:35 Sunny 89 31.5 73 22.9 60 60 WSW 12 19 29.94 1014 10 16 N/A
7:55 pm 19:55 Sunny 88 30.9 73 23 63 63 WSW 9 15 29.94 1014 10 16 N/A
8:15 pm 20:15 Sunny 87 30.3 74 23.3 66 66 WSW 7 11 29.95 1014 10 16 N/A
8:35 pm 20:35 Sunny with Nearby Thunderstorms 85 29.2 75 23.7 72 72 WSW 6 9 29.96 1015 10 16 N/A
8:55 pm 20:55 Cloudy with Strong Thunderstorms 76 24.5 64 17.8 66 66 SSE 9 15 30.00 1016 5 8 0.04 1.02
9:15 pm 21:15 Partly Cloudy with Nearby Thunderstorms 75 23.9 70 21 84 84 SSW 6 9 30.01 1016 10 16 N/A
9:35 pm 21:35 Mostly Cloudy with Thunderstorms 73 22.8 73 22.6 99 99 WNW 7 11 30.03 1017 10 16 N/A
9:55 pm 21:55 Partly Cloudy with Light Rain 76 24.2 74 23.6 96 96 N N/A 30.00 1016 10 16 0.02 0.51
10:15 pm 22:15 Clear 75 24 74 23.4 96 96 W 5 7 30.01 1016 10 16 N/A
10:35 pm 22:35 Clear 76 24.3 74 23.2 94 94 W 3 6 30.02 1017 10 16 N/A
10:55 pm 22:55 Clear 76 24.4 74 23.1 92 92 SW 7 11 30.03 1017 10 16 N/A
11:15 pm 23:15 Clear 76 24.2 74 23.3 95 95 W 5 7 30.03 1017 10 16 N/A
11:35 pm 23:35 Clear with Light Rain 73 23 75 24 100 100 WNW 5 7 30.05 1018 10 16 N/A
11:55 pm 23:55 Clear 74 23.3 74 23.2 99 99 N N/A 30.04 1017 10 16 N/A

Powered by AerisWeather